Year,Month,Day,Hour,Minute,Value (Times are PST for temperature in C)
2018,08,17,00,00,14.40
2018,08,17,00,01,14.30
2018,08,17,00,02,14.30
2018,08,17,00,03,14.30
2018,08,17,00,04,14.30
2018,08,17,00,05,14.30
2018,08,17,00,06,14.30
2018,08,17,00,07,14.30
2018,08,17,00,08,14.30
2018,08,17,00,09,14.30
2018,08,17,00,10,14.30
2018,08,17,00,11,14.30
2018,08,17,00,12,14.30
2018,08,17,00,13,14.30
2018,08,17,00,14,14.30
2018,08,17,00,15,14.20
2018,08,17,00,16,14.20
2018,08,17,00,17,14.20
2018,08,17,00,18,14.20
2018,08,17,00,19,14.20
2018,08,17,00,20,14.20
2018,08,17,00,21,14.20
2018,08,17,00,22,14.20
2018,08,17,00,23,14.20
2018,08,17,00,24,14.20
2018,08,17,00,25,14.20
2018,08,17,00,26,14.10
2018,08,17,00,27,14.10
2018,08,17,00,28,14.10
2018,08,17,00,29,14.00
2018,08,17,00,30,14.00
2018,08,17,00,31,14.00
2018,08,17,00,32,13.90
2018,08,17,00,33,13.90
2018,08,17,00,34,13.90
2018,08,17,00,35,13.80
2018,08,17,00,36,13.80
2018,08,17,00,37,13.80
2018,08,17,00,38,13.70
2018,08,17,00,39,13.70
2018,08,17,00,40,13.70
2018,08,17,00,41,13.70
2018,08,17,00,42,13.70
2018,08,17,00,43,13.70
2018,08,17,00,44,13.60
2018,08,17,00,45,13.60
2018,08,17,00,46,13.60
2018,08,17,00,47,13.60
2018,08,17,00,48,13.50
2018,08,17,00,49,13.50
2018,08,17,00,50,13.50
2018,08,17,00,51,13.50
2018,08,17,00,52,13.50
2018,08,17,00,53,13.40
2018,08,17,00,54,13.40
2018,08,17,00,55,13.40
2018,08,17,00,56,13.30
2018,08,17,00,57,13.30
2018,08,17,00,58,13.30
2018,08,17,00,59,13.30
2018,08,17,01,00,13.30
2018,08,17,01,01,13.30
2018,08,17,01,02,13.30
2018,08,17,01,03,13.20
2018,08,17,01,04,13.20
2018,08,17,01,05,13.20
2018,08,17,01,06,13.20
2018,08,17,01,07,13.10
2018,08,17,01,08,13.10
2018,08,17,01,09,13.10
2018,08,17,01,10,13.10
2018,08,17,01,11,13.10
2018,08,17,01,12,13.00
2018,08,17,01,13,13.00
2018,08,17,01,14,13.00
2018,08,17,01,15,13.00
2018,08,17,01,16,13.00
2018,08,17,01,17,12.90
2018,08,17,01,18,12.90
2018,08,17,01,19,12.90
2018,08,17,01,20,12.90
2018,08,17,01,21,12.90
2018,08,17,01,22,12.90
2018,08,17,01,23,12.90
2018,08,17,01,24,12.90
2018,08,17,01,25,12.90
2018,08,17,01,26,12.90
2018,08,17,01,27,12.90
2018,08,17,01,28,12.90
2018,08,17,01,29,12.80
2018,08,17,01,30,12.80
2018,08,17,01,31,12.80
2018,08,17,01,32,12.80
2018,08,17,01,33,12.80
2018,08,17,01,34,12.80
2018,08,17,01,35,12.80
2018,08,17,01,36,12.80
2018,08,17,01,37,12.80
2018,08,17,01,38,12.80
2018,08,17,01,39,12.80
2018,08,17,01,40,12.80
2018,08,17,01,41,12.80
2018,08,17,01,42,12.80
2018,08,17,01,43,12.80
2018,08,17,01,44,12.70
2018,08,17,01,45,12.70
2018,08,17,01,46,12.70
2018,08,17,01,47,12.70
2018,08,17,01,48,12.70
2018,08,17,01,49,12.70
2018,08,17,01,50,12.70
2018,08,17,01,51,12.60
2018,08,17,01,52,12.60
2018,08,17,01,53,12.60
2018,08,17,01,54,12.60
2018,08,17,01,55,12.60
2018,08,17,01,56,12.60
2018,08,17,01,57,12.60
2018,08,17,01,58,12.60
2018,08,17,01,59,12.60
2018,08,17,02,00,12.60
2018,08,17,02,01,12.60
2018,08,17,02,02,12.50
2018,08,17,02,03,12.50
2018,08,17,02,04,12.50
2018,08,17,02,05,12.50
2018,08,17,02,06,12.50
2018,08,17,02,07,12.50
2018,08,17,02,08,12.50
2018,08,17,02,09,12.50
2018,08,17,02,10,12.50
2018,08,17,02,11,12.40
2018,08,17,02,12,12.40
2018,08,17,02,13,12.40
2018,08,17,02,14,12.40
2018,08,17,02,15,12.40
2018,08,17,02,16,12.40
2018,08,17,02,17,12.40
2018,08,17,02,18,12.30
2018,08,17,02,19,12.30
2018,08,17,02,20,12.30
2018,08,17,02,21,12.30
2018,08,17,02,22,12.30
2018,08,17,02,23,12.30
2018,08,17,02,24,12.30
2018,08,17,02,25,12.30
2018,08,17,02,26,12.30
2018,08,17,02,27,12.30
2018,08,17,02,28,12.30
2018,08,17,02,29,12.20
2018,08,17,02,30,12.20
2018,08,17,02,31,12.20
2018,08,17,02,32,12.10
2018,08,17,02,33,12.10
2018,08,17,02,34,12.00
2018,08,17,02,35,12.00
2018,08,17,02,36,12.00
2018,08,17,02,37,11.90
2018,08,17,02,38,11.90
2018,08,17,02,39,11.90
2018,08,17,02,40,11.80
2018,08,17,02,41,11.80
2018,08,17,02,42,11.80
2018,08,17,02,43,11.80
2018,08,17,02,44,11.80
2018,08,17,02,45,11.80
2018,08,17,02,46,11.80
2018,08,17,02,47,11.70
2018,08,17,02,48,11.70
2018,08,17,02,49,11.70
2018,08,17,02,50,11.70
2018,08,17,02,51,11.60
2018,08,17,02,52,11.60
2018,08,17,02,53,11.60
2018,08,17,02,54,11.60
2018,08,17,02,55,11.60
2018,08,17,02,56,11.60
2018,08,17,02,57,11.60
2018,08,17,02,58,11.60
2018,08,17,02,59,11.60
2018,08,17,03,00,11.60
2018,08,17,03,01,11.60
2018,08,17,03,02,11.60
2018,08,17,03,03,11.60
2018,08,17,03,04,11.60
2018,08,17,03,05,11.60
2018,08,17,03,06,11.60
2018,08,17,03,07,11.60
2018,08,17,03,08,11.60
2018,08,17,03,09,11.60
2018,08,17,03,10,11.70
2018,08,17,03,11,11.70
2018,08,17,03,12,11.70
2018,08,17,03,13,11.70
2018,08,17,03,14,11.80
2018,08,17,03,15,11.80
2018,08,17,03,16,11.80
2018,08,17,03,17,11.90
2018,08,17,03,18,11.90
2018,08,17,03,19,11.90
2018,08,17,03,20,11.90
2018,08,17,03,21,11.90
2018,08,17,03,22,11.90
2018,08,17,03,23,11.90
2018,08,17,03,24,11.90
2018,08,17,03,25,11.90
2018,08,17,03,26,11.90
2018,08,17,03,27,11.90
2018,08,17,03,28,11.90
2018,08,17,03,29,11.90
2018,08,17,03,30,11.90
2018,08,17,03,31,11.90
2018,08,17,03,32,11.90
2018,08,17,03,33,11.90
2018,08,17,03,34,11.90
2018,08,17,03,35,11.90
2018,08,17,03,36,11.90
2018,08,17,03,37,11.80
2018,08,17,03,38,11.80
2018,08,17,03,39,11.80
2018,08,17,03,40,11.80
2018,08,17,03,41,11.80
2018,08,17,03,42,11.80
2018,08,17,03,43,11.70
2018,08,17,03,44,11.70
2018,08,17,03,45,11.60
2018,08,17,03,46,11.60
2018,08,17,03,47,11.60
2018,08,17,03,48,11.60
2018,08,17,03,49,11.60
2018,08,17,03,50,11.60
2018,08,17,03,51,11.60
2018,08,17,03,52,11.60
2018,08,17,03,53,11.60
2018,08,17,03,54,11.60
2018,08,17,03,55,11.60
2018,08,17,03,56,11.60
2018,08,17,03,57,11.60
2018,08,17,03,58,11.60
2018,08,17,03,59,11.60
2018,08,17,04,00,11.60
2018,08,17,04,01,11.60
2018,08,17,04,02,11.60
2018,08,17,04,03,11.60
2018,08,17,04,04,11.60
2018,08,17,04,05,11.60
2018,08,17,04,06,11.60
2018,08,17,04,07,11.60
2018,08,17,04,08,11.60
2018,08,17,04,09,11.60
2018,08,17,04,10,11.60
2018,08,17,04,11,11.60
2018,08,17,04,12,11.60
2018,08,17,04,13,11.60
2018,08,17,04,14,11.60
2018,08,17,04,15,11.60
2018,08,17,04,16,11.60
2018,08,17,04,17,11.60
2018,08,17,04,18,11.60
2018,08,17,04,19,11.60
2018,08,17,04,20,11.60
2018,08,17,04,21,11.60
2018,08,17,04,22,11.60
2018,08,17,04,23,11.60
2018,08,17,04,24,11.60
2018,08,17,04,25,11.60
2018,08,17,04,26,11.50
2018,08,17,04,27,11.40
2018,08,17,04,28,11.40
2018,08,17,04,29,11.40
2018,08,17,04,30,11.40
2018,08,17,04,31,11.40
2018,08,17,04,32,11.40
2018,08,17,04,33,11.40
2018,08,17,04,34,11.40
2018,08,17,04,35,11.40
2018,08,17,04,36,11.40
2018,08,17,04,37,11.30
2018,08,17,04,38,11.30
2018,08,17,04,39,11.30
2018,08,17,04,40,11.30
2018,08,17,04,41,11.30
2018,08,17,04,42,11.30
2018,08,17,04,43,11.30
2018,08,17,04,44,11.40
2018,08,17,04,45,11.40
2018,08,17,04,46,11.40
2018,08,17,04,47,11.40
2018,08,17,04,48,11.40
2018,08,17,04,49,11.30
2018,08,17,04,50,11.30
2018,08,17,04,51,11.30
2018,08,17,04,52,11.30
2018,08,17,04,53,11.30
2018,08,17,04,54,11.30
2018,08,17,04,55,11.30
2018,08,17,04,56,11.30
2018,08,17,04,57,11.30
2018,08,17,04,58,11.30
2018,08,17,04,59,11.20
2018,08,17,05,00,11.20
2018,08,17,05,01,11.10
2018,08,17,05,02,11.10
2018,08,17,05,03,11.10
2018,08,17,05,04,11.10
2018,08,17,05,05,11.10
2018,08,17,05,06,11.00
2018,08,17,05,07,10.90
2018,08,17,05,08,10.90
2018,08,17,05,09,10.90
2018,08,17,05,10,10.80
2018,08,17,05,11,10.80
2018,08,17,05,12,10.80
2018,08,17,05,13,10.80
2018,08,17,05,14,10.80
2018,08,17,05,15,10.80
2018,08,17,05,16,10.80
2018,08,17,05,17,10.80
2018,08,17,05,18,10.80
2018,08,17,05,19,10.80
2018,08,17,05,20,10.80
2018,08,17,05,21,10.80
2018,08,17,05,22,10.80
2018,08,17,05,23,10.80
2018,08,17,05,24,10.80
2018,08,17,05,25,10.80
2018,08,17,05,26,10.80
2018,08,17,05,27,10.80
2018,08,17,05,28,10.70
2018,08,17,05,29,10.70
2018,08,17,05,30,10.70
2018,08,17,05,31,10.70
2018,08,17,05,32,10.70
2018,08,17,05,33,10.70
2018,08,17,05,34,10.70
2018,08,17,05,35,10.70
2018,08,17,05,36,10.60
2018,08,17,05,37,10.60
2018,08,17,05,38,10.60
2018,08,17,05,39,10.60
2018,08,17,05,40,10.60
2018,08,17,05,41,10.60
2018,08,17,05,42,10.60
2018,08,17,05,43,10.60
2018,08,17,05,44,10.60
2018,08,17,05,45,10.60
2018,08,17,05,46,10.60
2018,08,17,05,47,10.60
2018,08,17,05,48,10.60
2018,08,17,05,49,10.60
2018,08,17,05,50,10.60
2018,08,17,05,51,10.60
2018,08,17,05,52,10.60
2018,08,17,05,53,10.50
2018,08,17,05,54,10.40
2018,08,17,05,55,10.40
2018,08,17,05,56,10.40
2018,08,17,05,57,10.40
2018,08,17,05,58,10.30
2018,08,17,05,59,10.30
2018,08,17,06,00,10.20
2018,08,17,06,01,10.20
2018,08,17,06,02,10.20
2018,08,17,06,03,10.10
2018,08,17,06,04,10.10
2018,08,17,06,05,10.10
2018,08,17,06,06,10.10
2018,08,17,06,07,10.10
2018,08,17,06,08,10.10
2018,08,17,06,09,10.00
2018,08,17,06,10,9.90
2018,08,17,06,11,9.90
2018,08,17,06,12,9.90
2018,08,17,06,13,9.90
2018,08,17,06,14,9.90
2018,08,17,06,15,9.90
2018,08,17,06,16,9.90
2018,08,17,06,17,9.90
2018,08,17,06,18,9.90
2018,08,17,06,19,9.90
2018,08,17,06,20,9.90
2018,08,17,06,21,9.90
2018,08,17,06,22,9.90
2018,08,17,06,23,10.00
2018,08,17,06,24,10.10
2018,08,17,06,25,10.10
2018,08,17,06,26,10.10
2018,08,17,06,27,10.10
2018,08,17,06,28,10.10
2018,08,17,06,29,10.10
2018,08,17,06,30,10.10
2018,08,17,06,31,10.20
2018,08,17,06,32,10.20
2018,08,17,06,33,10.20
2018,08,17,06,34,10.30
2018,08,17,06,35,10.30
2018,08,17,06,36,10.30
2018,08,17,06,37,10.40
2018,08,17,06,38,10.40
2018,08,17,06,39,10.40
2018,08,17,06,40,10.40
2018,08,17,06,41,10.40
2018,08,17,06,42,10.40
2018,08,17,06,43,10.40
2018,08,17,06,44,10.40
2018,08,17,06,45,10.40
2018,08,17,06,46,10.40
2018,08,17,06,47,10.40
2018,08,17,06,48,10.40
2018,08,17,06,49,10.40
2018,08,17,06,50,10.40
2018,08,17,06,51,10.40
2018,08,17,06,52,10.40
2018,08,17,06,53,10.50
2018,08,17,06,54,10.60
2018,08,17,06,55,10.60
2018,08,17,06,56,10.60
2018,08,17,06,57,10.60
2018,08,17,06,58,10.60
2018,08,17,06,59,10.60
2018,08,17,07,00,10.70
2018,08,17,07,01,10.70
2018,08,17,07,02,10.80
2018,08,17,07,03,10.80
2018,08,17,07,04,10.90
2018,08,17,07,05,10.90
2018,08,17,07,06,10.90
2018,08,17,07,07,10.90
2018,08,17,07,08,11.00
2018,08,17,07,09,11.10
2018,08,17,07,10,11.10
2018,08,17,07,11,11.10
2018,08,17,07,12,11.10
2018,08,17,07,13,11.10
2018,08,17,07,14,11.10
2018,08,17,07,15,11.10
2018,08,17,07,16,11.10
2018,08,17,07,17,11.10
2018,08,17,07,18,11.10
2018,08,17,07,19,11.20
2018,08,17,07,20,11.20
2018,08,17,07,21,11.20
2018,08,17,07,22,11.20
2018,08,17,07,23,11.30
2018,08,17,07,24,11.30
2018,08,17,07,25,11.40
2018,08,17,07,26,11.40
2018,08,17,07,27,11.50
2018,08,17,07,28,11.60
2018,08,17,07,29,11.60
2018,08,17,07,30,11.60
2018,08,17,07,31,11.70
2018,08,17,07,32,11.80
2018,08,17,07,33,11.80
2018,08,17,07,34,11.90
2018,08,17,07,35,12.00
2018,08,17,07,36,12.10
2018,08,17,07,37,12.20
2018,08,17,07,38,12.20
2018,08,17,07,39,12.30
2018,08,17,07,40,12.30
2018,08,17,07,41,12.30
2018,08,17,07,42,12.40
2018,08,17,07,43,12.50
2018,08,17,07,44,12.50
2018,08,17,07,45,12.50
2018,08,17,07,46,12.50
2018,08,17,07,47,12.60
2018,08,17,07,48,12.60
2018,08,17,07,49,12.60
2018,08,17,07,50,12.70
2018,08,17,07,51,12.70
2018,08,17,07,52,12.80
2018,08,17,07,53,12.80
2018,08,17,07,54,12.90
2018,08,17,07,55,13.00
2018,08,17,07,56,13.10
2018,08,17,07,57,13.20
2018,08,17,07,58,13.30
2018,08,17,07,59,13.30
2018,08,17,08,00,13.40
2018,08,17,08,01,13.50
2018,08,17,08,02,13.60
2018,08,17,08,03,13.70
2018,08,17,08,04,13.80
2018,08,17,08,05,13.90
2018,08,17,08,06,14.00
2018,08,17,08,07,14.00
2018,08,17,08,08,14.10
2018,08,17,08,09,14.20
2018,08,17,08,10,14.30
2018,08,17,08,11,14.40
2018,08,17,08,12,14.50
2018,08,17,08,13,14.60
2018,08,17,08,14,14.70
2018,08,17,08,15,14.80
2018,08,17,08,16,15.00
2018,08,17,08,17,15.10
2018,08,17,08,18,15.20
2018,08,17,08,19,15.30
2018,08,17,08,20,15.40
2018,08,17,08,21,15.50
2018,08,17,08,22,15.50
2018,08,17,08,23,15.60
2018,08,17,08,24,15.80
2018,08,17,08,25,15.80
2018,08,17,08,26,15.90
2018,08,17,08,27,15.90
2018,08,17,08,28,16.00
2018,08,17,08,29,16.10
2018,08,17,08,30,16.10
2018,08,17,08,31,16.10
2018,08,17,08,32,16.10
2018,08,17,08,33,16.10
2018,08,17,08,34,16.10
2018,08,17,08,35,16.10
2018,08,17,08,36,16.00
2018,08,17,08,37,15.90
2018,08,17,08,38,16.10
2018,08,17,08,39,16.10
2018,08,17,08,40,16.10
2018,08,17,08,41,16.10
2018,08,17,08,42,16.10
2018,08,17,08,43,16.20
2018,08,17,08,44,16.20
2018,08,17,08,45,16.30
2018,08,17,08,46,16.30
2018,08,17,08,47,16.40
2018,08,17,08,48,16.50
2018,08,17,08,49,16.60
2018,08,17,08,50,16.70
2018,08,17,08,51,16.70
2018,08,17,08,52,16.80
2018,08,17,08,53,16.90
2018,08,17,08,54,16.90
2018,08,17,08,55,16.90
2018,08,17,08,56,16.80
2018,08,17,08,57,16.80
2018,08,17,08,58,16.80
2018,08,17,08,59,16.80
2018,08,17,09,00,16.80
2018,08,17,09,01,16.90
2018,08,17,09,02,17.00
2018,08,17,09,03,17.00
2018,08,17,09,04,17.00
2018,08,17,09,05,17.00
2018,08,17,09,06,17.10
2018,08,17,09,07,17.10
2018,08,17,09,08,17.20
2018,08,17,09,09,17.30
2018,08,17,09,10,17.30
2018,08,17,09,11,17.40
2018,08,17,09,12,17.40
2018,08,17,09,13,17.50
2018,08,17,09,14,17.70
2018,08,17,09,15,17.70
2018,08,17,09,16,17.80
2018,08,17,09,17,17.90
2018,08,17,09,18,17.90
2018,08,17,09,19,18.00
2018,08,17,09,20,18.10
2018,08,17,09,21,18.20
2018,08,17,09,22,18.30
2018,08,17,09,23,18.30
2018,08,17,09,24,18.30
2018,08,17,09,25,18.40
2018,08,17,09,26,18.40
2018,08,17,09,27,18.50
2018,08,17,09,28,18.50
2018,08,17,09,29,18.60
2018,08,17,09,30,18.50
2018,08,17,09,31,18.40
2018,08,17,09,32,18.30
2018,08,17,09,33,18.30
2018,08,17,09,34,18.30
2018,08,17,09,35,18.30
2018,08,17,09,36,18.30
2018,08,17,09,37,18.40
2018,08,17,09,38,18.50
2018,08,17,09,39,18.60
2018,08,17,09,40,18.60
2018,08,17,09,41,18.50
2018,08,17,09,42,18.50
2018,08,17,09,43,18.50
2018,08,17,09,44,18.50
2018,08,17,09,45,18.50
2018,08,17,09,46,18.50
2018,08,17,09,47,18.60
2018,08,17,09,48,18.70
2018,08,17,09,49,18.70
2018,08,17,09,50,18.70
2018,08,17,09,51,18.80
2018,08,17,09,52,18.80
2018,08,17,09,53,18.90
2018,08,17,09,54,19.00
2018,08,17,09,55,19.10
2018,08,17,09,56,19.10
2018,08,17,09,57,19.10
2018,08,17,09,58,19.10
2018,08,17,09,59,19.20
2018,08,17,10,00,19.20
2018,08,17,10,01,19.30
2018,08,17,10,02,19.30
2018,08,17,10,03,19.40
2018,08,17,10,04,19.40
2018,08,17,10,05,19.40
2018,08,17,10,06,19.40
2018,08,17,10,07,19.50
2018,08,17,10,08,19.50
2018,08,17,10,09,19.60
2018,08,17,10,10,19.70
2018,08,17,10,11,19.70
2018,08,17,10,12,19.60
2018,08,17,10,13,19.50
2018,08,17,10,14,19.20
2018,08,17,10,15,19.10
2018,08,17,10,16,18.90
2018,08,17,10,17,18.70
2018,08,17,10,18,18.50
2018,08,17,10,19,18.20
2018,08,17,10,20,18.00
2018,08,17,10,21,17.80
2018,08,17,10,22,17.70
2018,08,17,10,23,17.60
2018,08,17,10,24,17.60
2018,08,17,10,25,17.50
2018,08,17,10,26,17.40
2018,08,17,10,27,17.50
2018,08,17,10,28,17.60
2018,08,17,10,29,17.70
2018,08,17,10,30,17.70
2018,08,17,10,31,17.70
2018,08,17,10,32,17.70
2018,08,17,10,33,17.70
2018,08,17,10,34,17.70
2018,08,17,10,35,17.70
2018,08,17,10,36,17.60
2018,08,17,10,37,17.50
2018,08,17,10,38,17.50
2018,08,17,10,39,17.60
2018,08,17,10,40,17.60
2018,08,17,10,41,17.70
2018,08,17,10,42,17.70
2018,08,17,10,43,17.70
2018,08,17,10,44,17.70
2018,08,17,10,45,17.70
2018,08,17,10,46,17.70
2018,08,17,10,47,17.70
2018,08,17,10,48,17.80
2018,08,17,10,49,17.90
2018,08,17,10,50,17.90
2018,08,17,10,51,17.90
2018,08,17,10,52,17.90
2018,08,17,10,53,17.90
2018,08,17,10,54,17.80
2018,08,17,10,55,17.80
2018,08,17,10,56,17.80
2018,08,17,10,57,17.80
2018,08,17,10,58,17.80
2018,08,17,10,59,17.80
2018,08,17,11,00,17.80
2018,08,17,11,01,17.90
2018,08,17,11,02,17.90
2018,08,17,11,03,17.90
2018,08,17,11,04,17.90
2018,08,17,11,05,17.90
2018,08,17,11,06,18.00
2018,08,17,11,07,18.10
2018,08,17,11,08,18.10
2018,08,17,11,09,18.20
2018,08,17,11,10,18.20
2018,08,17,11,11,18.30
2018,08,17,11,12,18.40
2018,08,17,11,13,18.50
2018,08,17,11,14,18.50
2018,08,17,11,15,18.50
2018,08,17,11,16,18.50
2018,08,17,11,17,18.50
2018,08,17,11,18,18.60
2018,08,17,11,19,18.60
2018,08,17,11,20,18.60
2018,08,17,11,21,18.50
2018,08,17,11,22,18.40
2018,08,17,11,23,18.40
2018,08,17,11,24,18.30
2018,08,17,11,25,18.20
2018,08,17,11,26,18.10
2018,08,17,11,27,18.10
2018,08,17,11,28,18.10
2018,08,17,11,29,18.20
2018,08,17,11,30,18.20
2018,08,17,11,31,18.20
2018,08,17,11,32,18.10
2018,08,17,11,33,18.10
2018,08,17,11,34,17.90
2018,08,17,11,35,17.90
2018,08,17,11,36,17.80
2018,08,17,11,37,17.80
2018,08,17,11,38,17.80
2018,08,17,11,39,17.80
2018,08,17,11,40,17.80
2018,08,17,11,41,17.90
2018,08,17,11,42,17.90
2018,08,17,11,43,18.00
2018,08,17,11,44,18.10
2018,08,17,11,45,18.20
2018,08,17,11,46,18.20
2018,08,17,11,47,18.20
2018,08,17,11,48,18.30
2018,08,17,11,49,18.40
2018,08,17,11,50,18.50
2018,08,17,11,51,18.60
2018,08,17,11,52,18.70
2018,08,17,11,53,18.70
2018,08,17,11,54,18.70
2018,08,17,11,55,18.80
2018,08,17,11,56,18.70
2018,08,17,11,57,18.70
2018,08,17,11,58,18.80
2018,08,17,11,59,18.90
2018,08,17,12,00,18.90
2018,08,17,12,01,18.90
2018,08,17,12,02,18.90
2018,08,17,12,03,18.90
2018,08,17,12,04,18.80
2018,08,17,12,05,18.70
2018,08,17,12,06,18.70
2018,08,17,12,07,18.70
2018,08,17,12,08,18.70
2018,08,17,12,09,18.80
2018,08,17,12,10,18.90
2018,08,17,12,11,18.90
2018,08,17,12,12,18.80
2018,08,17,12,13,18.90
2018,08,17,12,14,19.00
2018,08,17,12,15,19.10
2018,08,17,12,16,19.10
2018,08,17,12,17,19.10
2018,08,17,12,18,18.80
2018,08,17,12,19,18.50
2018,08,17,12,20,18.30
2018,08,17,12,21,18.20
2018,08,17,12,22,18.10
2018,08,17,12,23,18.00
2018,08,17,12,24,17.80
2018,08,17,12,25,17.50
2018,08,17,12,26,17.20
2018,08,17,12,27,17.00
2018,08,17,12,28,17.00
2018,08,17,12,29,16.90
2018,08,17,12,30,16.70
2018,08,17,12,31,16.60
2018,08,17,12,32,16.60
2018,08,17,12,33,16.60
2018,08,17,12,34,16.70
2018,08,17,12,35,16.70
2018,08,17,12,36,16.70
2018,08,17,12,37,16.70
2018,08,17,12,38,16.60
2018,08,17,12,39,16.70
2018,08,17,12,40,16.70
2018,08,17,12,41,16.60
2018,08,17,12,42,16.60
2018,08,17,12,43,16.60
2018,08,17,12,44,16.70
2018,08,17,12,45,16.60
2018,08,17,12,46,16.50
2018,08,17,12,47,16.40
2018,08,17,12,48,16.40
2018,08,17,12,49,16.40
2018,08,17,12,50,16.60
2018,08,17,12,51,16.50
2018,08,17,12,52,16.50
2018,08,17,12,53,16.40
2018,08,17,12,54,16.40
2018,08,17,12,55,16.50
2018,08,17,12,56,16.40
2018,08,17,12,57,16.40
2018,08,17,12,58,16.40
2018,08,17,12,59,16.40
2018,08,17,13,00,16.40
2018,08,17,13,01,16.40
2018,08,17,13,02,16.40
2018,08,17,13,03,16.40
2018,08,17,13,04,16.30
2018,08,17,13,05,16.30
2018,08,17,13,06,16.30
2018,08,17,13,07,16.40
2018,08,17,13,08,16.40
2018,08,17,13,09,16.50
2018,08,17,13,10,16.60
2018,08,17,13,11,16.60
2018,08,17,13,12,16.50
2018,08,17,13,13,16.40
2018,08,17,13,14,16.50
2018,08,17,13,15,16.60
2018,08,17,13,16,16.40
2018,08,17,13,17,16.50
2018,08,17,13,18,16.60
2018,08,17,13,19,16.70
2018,08,17,13,20,16.80
2018,08,17,13,21,16.90
2018,08,17,13,22,17.00
2018,08,17,13,23,17.00
2018,08,17,13,24,16.90
2018,08,17,13,25,16.90
2018,08,17,13,26,17.00
2018,08,17,13,27,16.90
2018,08,17,13,28,16.90
2018,08,17,13,29,17.00
2018,08,17,13,30,17.00
2018,08,17,13,31,17.00
2018,08,17,13,32,17.00
2018,08,17,13,33,16.90
2018,08,17,13,34,16.80
2018,08,17,13,35,16.80
2018,08,17,13,36,16.90
2018,08,17,13,37,16.90
2018,08,17,13,38,16.80
2018,08,17,13,39,16.80
2018,08,17,13,40,16.70
2018,08,17,13,41,16.60
2018,08,17,13,42,16.40
2018,08,17,13,43,16.30
2018,08,17,13,44,16.30
2018,08,17,13,45,16.20
2018,08,17,13,46,16.10
2018,08,17,13,47,16.10
2018,08,17,13,48,16.10
2018,08,17,13,49,16.10
2018,08,17,13,50,16.10
2018,08,17,13,51,16.00
2018,08,17,13,52,15.90
2018,08,17,13,53,15.80
2018,08,17,13,54,15.80
2018,08,17,13,55,15.70
2018,08,17,13,56,15.60
2018,08,17,13,57,15.60
2018,08,17,13,58,15.60
2018,08,17,13,59,15.70
2018,08,17,14,00,15.80
2018,08,17,14,01,15.70
2018,08,17,14,02,15.60
2018,08,17,14,03,15.60
2018,08,17,14,04,15.60
2018,08,17,14,05,15.60
2018,08,17,14,06,15.60
2018,08,17,14,07,15.50
2018,08,17,14,08,15.50
2018,08,17,14,09,15.60
2018,08,17,14,10,15.60
2018,08,17,14,11,15.60
2018,08,17,14,12,15.80
2018,08,17,14,13,15.80
2018,08,17,14,14,15.80
2018,08,17,14,15,15.60
2018,08,17,14,16,15.60
2018,08,17,14,17,15.50
2018,08,17,14,18,15.50
2018,08,17,14,19,15.50
2018,08,17,14,20,15.50
2018,08,17,14,21,15.30
2018,08,17,14,22,15.30
2018,08,17,14,23,15.30
2018,08,17,14,24,15.20
2018,08,17,14,25,15.00
2018,08,17,14,26,14.90
2018,08,17,14,27,14.80
2018,08,17,14,28,14.80
2018,08,17,14,29,14.80
2018,08,17,14,30,14.70
2018,08,17,14,31,14.70
2018,08,17,14,32,14.80
2018,08,17,14,33,15.00
2018,08,17,14,34,15.10
2018,08,17,14,35,15.10
2018,08,17,14,36,15.10
2018,08,17,14,37,15.10
2018,08,17,14,38,15.00
2018,08,17,14,39,15.00
2018,08,17,14,40,15.10
2018,08,17,14,41,15.20
2018,08,17,14,42,15.30
2018,08,17,14,43,15.40
2018,08,17,14,44,15.40
2018,08,17,14,45,15.20
2018,08,17,14,46,15.20
2018,08,17,14,47,15.20
2018,08,17,14,48,15.30
2018,08,17,14,49,15.30
2018,08,17,14,50,15.30
2018,08,17,14,51,15.20
2018,08,17,14,52,15.20
2018,08,17,14,53,15.10
2018,08,17,14,54,15.00
2018,08,17,14,55,15.00
2018,08,17,14,56,15.00
2018,08,17,14,57,14.90
2018,08,17,14,58,15.00
2018,08,17,14,59,15.10
2018,08,17,15,00,15.10
2018,08,17,15,01,15.20
2018,08,17,15,02,15.30
2018,08,17,15,03,15.50
2018,08,17,15,04,15.60
2018,08,17,15,05,15.60
2018,08,17,15,06,15.70
2018,08,17,15,07,15.70
2018,08,17,15,08,15.80
2018,08,17,15,09,15.90
2018,08,17,15,10,16.00
2018,08,17,15,11,16.10
2018,08,17,15,12,16.10
2018,08,17,15,13,16.10
2018,08,17,15,14,16.10
2018,08,17,15,15,16.20
2018,08,17,15,16,16.30
2018,08,17,15,17,16.40
2018,08,17,15,18,16.30
2018,08,17,15,19,16.20
2018,08,17,15,20,16.30
2018,08,17,15,21,16.30
2018,08,17,15,22,16.40
2018,08,17,15,23,16.30
2018,08,17,15,24,16.40
2018,08,17,15,25,16.40
2018,08,17,15,26,16.40
2018,08,17,15,27,16.40
2018,08,17,15,28,16.40
2018,08,17,15,29,16.30
2018,08,17,15,30,16.30
2018,08,17,15,31,16.40
2018,08,17,15,32,16.40
2018,08,17,15,33,16.50
2018,08,17,15,34,16.70
2018,08,17,15,35,16.80
2018,08,17,15,36,16.80
2018,08,17,15,37,16.80
2018,08,17,15,38,16.70
2018,08,17,15,39,16.70
2018,08,17,15,40,16.70
2018,08,17,15,41,16.70
2018,08,17,15,42,16.70
2018,08,17,15,43,16.70
2018,08,17,15,44,16.80
2018,08,17,15,45,16.80
2018,08,17,15,46,16.70
2018,08,17,15,47,16.60
2018,08,17,15,48,16.40
2018,08,17,15,49,16.40
2018,08,17,15,50,16.30
2018,08,17,15,51,16.20
2018,08,17,15,52,16.10
2018,08,17,15,53,16.10
2018,08,17,15,54,16.10
2018,08,17,15,55,16.10
2018,08,17,15,56,16.10
2018,08,17,15,57,16.10
2018,08,17,15,58,16.00
2018,08,17,15,59,16.10
2018,08,17,16,00,16.00
2018,08,17,16,01,16.10
2018,08,17,16,02,16.10
2018,08,17,16,03,16.10
2018,08,17,16,04,16.10
2018,08,17,16,05,16.20
2018,08,17,16,06,16.20
2018,08,17,16,07,16.20
2018,08,17,16,08,16.20
2018,08,17,16,09,16.10
2018,08,17,16,10,16.00
2018,08,17,16,11,15.90
2018,08,17,16,12,15.80
2018,08,17,16,13,15.80
2018,08,17,16,14,15.80
2018,08,17,16,15,15.80
2018,08,17,16,16,15.80
2018,08,17,16,17,15.80
2018,08,17,16,18,15.80
2018,08,17,16,19,15.80
2018,08,17,16,20,15.90
2018,08,17,16,21,15.90
2018,08,17,16,22,15.80
2018,08,17,16,23,15.80
2018,08,17,16,24,15.70
2018,08,17,16,25,15.70
2018,08,17,16,26,15.80
2018,08,17,16,27,15.80
2018,08,17,16,28,15.80
2018,08,17,16,29,15.80
2018,08,17,16,30,15.90
2018,08,17,16,31,15.90
2018,08,17,16,32,16.00
2018,08,17,16,33,16.10
2018,08,17,16,34,16.20
2018,08,17,16,35,16.20
2018,08,17,16,36,16.30
2018,08,17,16,37,16.40
2018,08,17,16,38,16.40
2018,08,17,16,39,16.50
2018,08,17,16,40,16.60
2018,08,17,16,41,16.50
2018,08,17,16,42,16.40
2018,08,17,16,43,16.40
2018,08,17,16,44,16.40
2018,08,17,16,45,16.40
2018,08,17,16,46,16.40
2018,08,17,16,47,16.40
2018,08,17,16,48,16.40
2018,08,17,16,49,16.40
2018,08,17,16,50,16.40
2018,08,17,16,51,16.40
2018,08,17,16,52,16.40
2018,08,17,16,53,16.40
2018,08,17,16,54,16.30
2018,08,17,16,55,16.30
2018,08,17,16,56,16.20
2018,08,17,16,57,16.20
2018,08,17,16,58,16.10
2018,08,17,16,59,16.10
2018,08,17,17,00,16.10
2018,08,17,17,01,16.10
2018,08,17,17,02,16.00
2018,08,17,17,03,15.90
2018,08,17,17,04,15.90
2018,08,17,17,05,15.90
2018,08,17,17,06,15.90
2018,08,17,17,07,15.80
2018,08,17,17,08,15.80
2018,08,17,17,09,15.80
2018,08,17,17,10,15.80
2018,08,17,17,11,15.80
2018,08,17,17,12,15.80
2018,08,17,17,13,15.80
2018,08,17,17,14,15.80
2018,08,17,17,15,15.80
2018,08,17,17,16,15.80
2018,08,17,17,17,15.80
2018,08,17,17,18,15.70
2018,08,17,17,19,15.70
2018,08,17,17,20,15.70